Date_Time,Julian_Date,Latitude,Longitude,Instrument_Depth,Water_Temperature
(yyyy-mm-dd hh:mn:ss UTC),(JD),(+ deg. North),(+ deg. East),(m),(deg. C)
1981-03-06 17:00:00 UTC,2444670.208333,29.4519,-93.4333,0107,14.6000
1981-03-06 17:30:00 UTC,2444670.229167,29.4519,-93.4333,0107,14.6000
1981-03-06 18:00:00 UTC,2444670.250000,29.4519,-93.4333,0107,14.7000
1981-03-06 18:30:00 UTC,2444670.270833,29.4519,-93.4333,0107,14.8000
1981-03-06 19:00:00 UTC,2444670.291667,29.4519,-93.4333,0107,14.8000
1981-03-06 19:30:00 UTC,2444670.312500,29.4519,-93.4333,0107,14.7000
1981-03-06 20:00:00 UTC,2444670.333333,29.4519,-93.4333,0107,14.7000
1981-03-06 20:30:00 UTC,2444670.354167,29.4519,-93.4333,0107,14.7000
1981-03-06 21:00:00 UTC,2444670.375000,29.4519,-93.4333,0107,14.7000
1981-03-06 21:30:00 UTC,2444670.395833,29.4519,-93.4333,0107,14.8000
1981-03-06 22:00:00 UTC,2444670.416667,29.4519,-93.4333,0107,14.8000
1981-03-06 22:30:00 UTC,2444670.437500,29.4519,-93.4333,0107,14.7000
1981-03-06 23:00:00 UTC,2444670.458333,29.4519,-93.4333,0107,14.7000
1981-03-06 23:30:00 UTC,2444670.479167,29.4519,-93.4333,0107,14.7000
1981-03-07 00:00:00 UTC,2444670.500000,29.4519,-93.4333,0107,14.7000
1981-03-07 00:30:00 UTC,2444670.520833,29.4519,-93.4333,0107,14.7000
1981-03-07 01:00:00 UTC,2444670.541667,29.4519,-93.4333,0107,14.7000
1981-03-07 01:30:00 UTC,2444670.562500,29.4519,-93.4333,0107,14.7000
1981-03-07 02:00:00 UTC,2444670.583333,29.4519,-93.4333,0107,14.7000
1981-03-07 02:30:00 UTC,2444670.604167,29.4519,-93.4333,0107,14.7000
1981-03-07 03:00:00 UTC,2444670.625000,29.4519,-93.4333,0107,14.7000
1981-03-07 03:30:00 UTC,2444670.645833,29.4519,-93.4333,0107,14.7000
1981-03-07 04:00:00 UTC,2444670.666667,29.4519,-93.4333,0107,14.7000
1981-03-07 04:30:00 UTC,2444670.687500,29.4519,-93.4333,0107,14.7000
1981-03-07 05:00:00 UTC,2444670.708333,29.4519,-93.4333,0107,14.7000
1981-03-07 05:30:00 UTC,2444670.729167,29.4519,-93.4333,0107,14.7000
1981-03-07 06:00:00 UTC,2444670.750000,29.4519,-93.4333,0107,14.7000
1981-03-07 06:30:00 UTC,2444670.770833,29.4519,-93.4333,0107,14.7000
1981-03-07 07:00:00 UTC,2444670.791667,29.4519,-93.4333,0107,14.8000
1981-03-07 07:30:00 UTC,2444670.812500,29.4519,-93.4333,0107,14.8000
1981-03-07 08:00:00 UTC,2444670.833333,29.4519,-93.4333,0107,14.8000
1981-03-07 08:30:00 UTC,2444670.854167,29.4519,-93.4333,0107,14.8000
1981-03-07 09:00:00 UTC,2444670.875000,29.4519,-93.4333,0107,14.8000
1981-03-07 09:30:00 UTC,2444670.895833,29.4519,-93.4333,0107,14.8000
1981-03-07 10:00:00 UTC,2444670.916667,29.4519,-93.4333,0107,14.8000
1981-03-07 10:30:00 UTC,2444670.937500,29.4519,-93.4333,0107,14.8000
1981-03-07 11:00:00 UTC,2444670.958333,29.4519,-93.4333,0107,14.7000
1981-03-07 11:30:00 UTC,2444670.979167,29.4519,-93.4333,0107,14.7000
1981-03-07 12:00:00 UTC,2444671.000000,29.4519,-93.4333,0107,14.7000
1981-03-07 12:30:00 UTC,2444671.020833,29.4519,-93.4333,0107,14.8000
1981-03-07 13:00:00 UTC,2444671.041667,29.4519,-93.4333,0107,14.7000
1981-03-07 13:30:00 UTC,2444671.062500,29.4519,-93.4333,0107,14.7000
1981-03-07 14:00:00 UTC,2444671.083333,29.4519,-93.4333,0107,14.7000
1981-03-07 14:30:00 UTC,2444671.104167,29.4519,-93.4333,0107,14.7000
1981-03-07 15:00:00 UTC,2444671.125000,29.4519,-93.4333,0107,14.7000
1981-03-07 15:30:00 UTC,2444671.145833,29.4519,-93.4333,0107,14.7000
1981-03-07 16:00:00 UTC,2444671.166667,29.4519,-93.4333,0107,14.7000
1981-03-07 16:30:00 UTC,2444671.187500,29.4519,-93.4333,0107,14.7000
1981-03-07 17:00:00 UTC,2444671.208333,29.4519,-93.4333,0107,14.7000
1981-03-07 17:30:00 UTC,2444671.229167,29.4519,-93.4333,0107,14.7000
1981-03-07 18:00:00 UTC,2444671.250000,29.4519,-93.4333,0107,14.7000
1981-03-07 18:30:00 UTC,2444671.270833,29.4519,-93.4333,0107,14.7000
1981-03-07 19:00:00 UTC,2444671.291667,29.4519,-93.4333,0107,14.7000
1981-03-07 19:30:00 UTC,2444671.312500,29.4519,-93.4333,0107,14.7000
1981-03-07 20:00:00 UTC,2444671.333333,29.4519,-93.4333,0107,14.7000
1981-03-07 20:30:00 UTC,2444671.354167,29.4519,-93.4333,0107,14.7000
1981-03-07 21:00:00 UTC,2444671.375000,29.4519,-93.4333,0107,14.7000
1981-03-07 21:30:00 UTC,2444671.395833,29.4519,-93.4333,0107,14.7000
1981-03-07 22:00:00 UTC,2444671.416667,29.4519,-93.4333,0107,14.7000
1981-03-07 22:30:00 UTC,2444671.437500,29.4519,-93.4333,0107,14.7000
1981-03-07 23:00:00 UTC,2444671.458333,29.4519,-93.4333,0107,14.7000
1981-03-07 23:30:00 UTC,2444671.479167,29.4519,-93.4333,0107,14.7000
1981-03-08 00:00:00 UTC,2444671.500000,29.4519,-93.4333,0107,14.7000
1981-03-08 00:30:00 UTC,2444671.520833,29.4519,-93.4333,0107,14.7000
1981-03-08 01:00:00 UTC,2444671.541667,29.4519,-93.4333,0107,14.7000
1981-03-08 01:30:00 UTC,2444671.562500,29.4519,-93.4333,0107,14.7000
1981-03-08 02:00:00 UTC,2444671.583333,29.4519,-93.4333,0107,14.7000
1981-03-08 02:30:00 UTC,2444671.604167,29.4519,-93.4333,0107,14.7000
1981-03-08 03:00:00 UTC,2444671.625000,29.4519,-93.4333,0107,14.7000
1981-03-08 03:30:00 UTC,2444671.645833,29.4519,-93.4333,0107,14.6000
1981-03-08 04:00:00 UTC,2444671.666667,29.4519,-93.4333,0107,14.6000
1981-03-08 04:30:00 UTC,2444671.687500,29.4519,-93.4333,0107,14.6000
1981-03-08 05:00:00 UTC,2444671.708333,29.4519,-93.4333,0107,14.6000
1981-03-08 05:30:00 UTC,2444671.729167,29.4519,-93.4333,0107,14.5000
1981-03-08 06:00:00 UTC,2444671.750000,29.4519,-93.4333,0107,14.5000
1981-03-08 06:30:00 UTC,2444671.770833,29.4519,-93.4333,0107,14.5000
1981-03-08 07:00:00 UTC,2444671.791667,29.4519,-93.4333,0107,14.5000
1981-03-08 07:30:00 UTC,2444671.812500,29.4519,-93.4333,0107,14.5000
1981-03-08 08:00:00 UTC,2444671.833333,29.4519,-93.4333,0107,14.4000
1981-03-08 08:30:00 UTC,2444671.854167,29.4519,-93.4333,0107,14.4000
1981-03-08 09:00:00 UTC,2444671.875000,29.4519,-93.4333,0107,14.4000
1981-03-08 09:30:00 UTC,2444671.895833,29.4519,-93.4333,0107,14.4000
1981-03-08 10:00:00 UTC,2444671.916667,29.4519,-93.4333,0107,14.4000
1981-03-08 10:30:00 UTC,2444671.937500,29.4519,-93.4333,0107,14.4000
1981-03-08 11:00:00 UTC,2444671.958333,29.4519,-93.4333,0107,14.4000
1981-03-08 11:30:00 UTC,2444671.979167,29.4519,-93.4333,0107,14.4000
1981-03-08 12:00:00 UTC,2444672.000000,29.4519,-93.4333,0107,14.5000
1981-03-08 12:30:00 UTC,2444672.020833,29.4519,-93.4333,0107,14.5000
1981-03-08 13:00:00 UTC,2444672.041667,29.4519,-93.4333,0107,14.4000
1981-03-08 13:30:00 UTC,2444672.062500,29.4519,-93.4333,0107,14.5000
1981-03-08 14:00:00 UTC,2444672.083333,29.4519,-93.4333,0107,14.6000
1981-03-08 14:30:00 UTC,2444672.104167,29.4519,-93.4333,0107,14.6000
1981-03-08 15:00:00 UTC,2444672.125000,29.4519,-93.4333,0107,14.6000
1981-03-08 15:30:00 UTC,2444672.145833,29.4519,-93.4333,0107,14.6000
1981-03-08 16:00:00 UTC,2444672.166667,29.4519,-93.4333,0107,14.6000
1981-03-08 16:30:00 UTC,2444672.187500,29.4519,-93.4333,0107,14.6000
1981-03-08 17:00:00 UTC,2444672.208333,29.4519,-93.4333,0107,14.6000
1981-03-08 17:30:00 UTC,2444672.229167,29.4519,-93.4333,0107,14.6000
1981-03-08 18:00:00 UTC,2444672.250000,29.4519,-93.4333,0107,14.6000
1981-03-08 18:30:00 UTC,2444672.270833,29.4519,-93.4333,0107,14.7000
1981-03-08 19:00:00 UTC,2444672.291667,29.4519,-93.4333,0107,14.7000
1981-03-08 19:30:00 UTC,2444672.312500,29.4519,-93.4333,0107,14.7000
1981-03-08 20:00:00 UTC,2444672.333333,29.4519,-93.4333,0107,14.7000
1981-03-08 20:30:00 UTC,2444672.354167,29.4519,-93.4333,0107,14.7000
1981-03-08 21:00:00 UTC,2444672.375000,29.4519,-93.4333,0107,14.7000
1981-03-08 21:30:00 UTC,2444672.395833,29.4519,-93.4333,0107,14.7000
1981-03-08 22:00:00 UTC,2444672.416667,29.4519,-93.4333,0107,14.7000
1981-03-08 22:30:00 UTC,2444672.437500,29.4519,-93.4333,0107,14.7000
1981-03-08 23:00:00 UTC,2444672.458333,29.4519,-93.4333,0107,14.7000
1981-03-08 23:30:00 UTC,2444672.479167,29.4519,-93.4333,0107,14.7000
1981-03-09 00:00:00 UTC,2444672.500000,29.4519,-93.4333,0107,14.7000
1981-03-09 00:30:00 UTC,2444672.520833,29.4519,-93.4333,0107,14.7000
1981-03-09 01:00:00 UTC,2444672.541667,29.4519,-93.4333,0107,14.7000
1981-03-09 01:30:00 UTC,2444672.562500,29.4519,-93.4333,0107,14.7000
1981-03-09 02:00:00 UTC,2444672.583333,29.4519,-93.4333,0107,14.7000
1981-03-09 02:30:00 UTC,2444672.604167,29.4519,-93.4333,0107,14.8000
1981-03-09 03:00:00 UTC,2444672.625000,29.4519,-93.4333,0107,14.8000
1981-03-09 03:30:00 UTC,2444672.645833,29.4519,-93.4333,0107,14.8000
1981-03-09 04:00:00 UTC,2444672.666667,29.4519,-93.4333,0107,14.8000
1981-03-09 04:30:00 UTC,2444672.687500,29.4519,-93.4333,0107,14.8000
1981-03-09 05:00:00 UTC,2444672.708333,29.4519,-93.4333,0107,14.8000
1981-03-09 05:30:00 UTC,2444672.729167,29.4519,-93.4333,0107,14.8000
1981-03-09 06:00:00 UTC,2444672.750000,29.4519,-93.4333,0107,14.9000
1981-03-09 06:30:00 UTC,2444672.770833,29.4519,-93.4333,0107,14.9000
1981-03-09 07:00:00 UTC,2444672.791667,29.4519,-93.4333,0107,14.9000
1981-03-09 07:30:00 UTC,2444672.812500,29.4519,-93.4333,0107,14.9000
1981-03-09 08:00:00 UTC,2444672.833333,29.4519,-93.4333,0107,14.9000
1981-03-09 08:30:00 UTC,2444672.854167,29.4519,-93.4333,0107,14.9000
1981-03-09 09:00:00 UTC,2444672.875000,29.4519,-93.4333,0107,14.8000
1981-03-09 09:30:00 UTC,2444672.895833,29.4519,-93.4333,0107,14.8000
1981-03-09 10:00:00 UTC,2444672.916667,29.4519,-93.4333,0107,14.8000
1981-03-09 10:30:00 UTC,2444672.937500,29.4519,-93.4333,0107,14.8000
1981-03-09 11:00:00 UTC,2444672.958333,29.4519,-93.4333,0107,14.8000
1981-03-09 11:30:00 UTC,2444672.979167,29.4519,-93.4333,0107,14.8000
1981-03-09 12:00:00 UTC,2444673.000000,29.4519,-93.4333,0107,14.9000
1981-03-09 12:30:00 UTC,2444673.020833,29.4519,-93.4333,0107,14.9000
1981-03-09 13:00:00 UTC,2444673.041667,29.4519,-93.4333,0107,14.9000
1981-03-09 13:30:00 UTC,2444673.062500,29.4519,-93.4333,0107,14.9000
1981-03-09 14:00:00 UTC,2444673.083333,29.4519,-93.4333,0107,14.9000
1981-03-09 14:30:00 UTC,2444673.104167,29.4519,-93.4333,0107,14.9000
1981-03-09 15:00:00 UTC,2444673.125000,29.4519,-93.4333,0107,14.9000
1981-03-09 15:30:00 UTC,2444673.145833,29.4519,-93.4333,0107,14.9000
1981-03-09 16:00:00 UTC,2444673.166667,29.4519,-93.4333,0107,14.9000
1981-03-09 16:30:00 UTC,2444673.187500,29.4519,-93.4333,0107,14.9000
1981-03-09 17:00:00 UTC,2444673.208333,29.4519,-93.4333,0107,14.9000
1981-03-09 17:30:00 UTC,2444673.229167,29.4519,-93.4333,0107,14.9000
1981-03-09 18:00:00 UTC,2444673.250000,29.4519,-93.4333,0107,15.0000
1981-03-09 18:30:00 UTC,2444673.270833,29.4519,-93.4333,0107,15.0000
1981-03-09 19:00:00 UTC,2444673.291667,29.4519,-93.4333,0107,15.0000
1981-03-09 19:30:00 UTC,2444673.312500,29.4519,-93.4333,0107,15.0000
1981-03-09 20:00:00 UTC,2444673.333333,29.4519,-93.4333,0107,15.0000
1981-03-09 20:30:00 UTC,2444673.354167,29.4519,-93.4333,0107,15.0000
1981-03-09 21:00:00 UTC,2444673.375000,29.4519,-93.4333,0107,15.0000
1981-03-09 21:30:00 UTC,2444673.395833,29.4519,-93.4333,0107,15.1000
1981-03-09 22:00:00 UTC,2444673.416667,29.4519,-93.4333,0107,15.1000
1981-03-09 22:30:00 UTC,2444673.437500,29.4519,-93.4333,0107,15.2000
1981-03-09 23:00:00 UTC,2444673.458333,29.4519,-93.4333,0107,15.2000
1981-03-09 23:30:00 UTC,2444673.479167,29.4519,-93.4333,0107,15.1000
1981-03-10 00:00:00 UTC,2444673.500000,29.4519,-93.4333,0107,15.1000
1981-03-10 00:30:00 UTC,2444673.520833,29.4519,-93.4333,0107,15.1000
1981-03-10 01:00:00 UTC,2444673.541667,29.4519,-93.4333,0107,15.2000
1981-03-10 01:30:00 UTC,2444673.562500,29.4519,-93.4333,0107,15.2000
1981-03-10 02:00:00 UTC,2444673.583333,29.4519,-93.4333,0107,15.2000
1981-03-10 02:30:00 UTC,2444673.604167,29.4519,-93.4333,0107,15.1000
1981-03-10 03:00:00 UTC,2444673.625000,29.4519,-93.4333,0107,15.1000
1981-03-10 03:30:00 UTC,2444673.645833,29.4519,-93.4333,0107,15.1000
1981-03-10 04:00:00 UTC,2444673.666667,29.4519,-93.4333,0107,15.1000
1981-03-10 04:30:00 UTC,2444673.687500,29.4519,-93.4333,0107,15.1000
1981-03-10 05:00:00 UTC,2444673.708333,29.4519,-93.4333,0107,15.1000
1981-03-10 05:30:00 UTC,2444673.729167,29.4519,-93.4333,0107,15.1000
1981-03-10 06:00:00 UTC,2444673.750000,29.4519,-93.4333,0107,15.1000
1981-03-10 06:30:00 UTC,2444673.770833,29.4519,-93.4333,0107,15.1000
1981-03-10 07:00:00 UTC,2444673.791667,29.4519,-93.4333,0107,15.1000
1981-03-10 07:30:00 UTC,2444673.812500,29.4519,-93.4333,0107,15.1000
1981-03-10 08:00:00 UTC,2444673.833333,29.4519,-93.4333,0107,15.1000
1981-03-10 08:30:00 UTC,2444673.854167,29.4519,-93.4333,0107,15.1000
1981-03-10 09:00:00 UTC,2444673.875000,29.4519,-93.4333,0107,15.1000
1981-03-10 09:30:00 UTC,2444673.895833,29.4519,-93.4333,0107,15.1000
1981-03-10 10:00:00 UTC,2444673.916667,29.4519,-93.4333,0107,15.1000
1981-03-10 10:30:00 UTC,2444673.937500,29.4519,-93.4333,0107,15.1000
1981-03-10 11:00:00 UTC,2444673.958333,29.4519,-93.4333,0107,15.1000
1981-03-10 11:30:00 UTC,2444673.979167,29.4519,-93.4333,0107,15.1000
1981-03-10 12:00:00 UTC,2444674.000000,29.4519,-93.4333,0107,15.1000
1981-03-10 12:30:00 UTC,2444674.020833,29.4519,-93.4333,0107,15.1000
1981-03-10 13:00:00 UTC,2444674.041667,29.4519,-93.4333,0107,15.1000
1981-03-10 13:30:00 UTC,2444674.062500,29.4519,-93.4333,0107,15.1000
1981-03-10 14:00:00 UTC,2444674.083333,29.4519,-93.4333,0107,15.1000
1981-03-10 14:30:00 UTC,2444674.104167,29.4519,-93.4333,0107,15.1000
1981-03-10 15:00:00 UTC,2444674.125000,29.4519,-93.4333,0107,15.1000
1981-03-10 15:30:00 UTC,2444674.145833,29.4519,-93.4333,0107,15.1000
1981-03-10 16:00:00 UTC,2444674.166667,29.4519,-93.4333,0107,15.1000
1981-03-10 16:30:00 UTC,2444674.187500,29.4519,-93.4333,0107,15.1000
1981-03-10 17:00:00 UTC,2444674.208333,29.4519,-93.4333,0107,15.1000
1981-03-10 17:30:00 UTC,2444674.229167,29.4519,-93.4333,0107,15.1000
1981-03-10 18:00:00 UTC,2444674.250000,29.4519,-93.4333,0107,15.1000
1981-03-10 18:30:00 UTC,2444674.270833,29.4519,-93.4333,0107,15.1000
1981-03-10 19:00:00 UTC,2444674.291667,29.4519,-93.4333,0107,15.1000
1981-03-10 19:30:00 UTC,2444674.312500,29.4519,-93.4333,0107,15.1000
1981-03-10 20:00:00 UTC,2444674.333333,29.4519,-93.4333,0107,15.1000
1981-03-10 20:30:00 UTC,2444674.354167,29.4519,-93.4333,0107,15.1000
1981-03-10 21:00:00 UTC,2444674.375000,29.4519,-93.4333,0107,15.1000
1981-03-10 21:30:00 UTC,2444674.395833,29.4519,-93.4333,0107,15.1000
1981-03-10 22:00:00 UTC,2444674.416667,29.4519,-93.4333,0107,15.1000
1981-03-10 22:30:00 UTC,2444674.437500,29.4519,-93.4333,0107,15.1000
1981-03-10 23:00:00 UTC,2444674.458333,29.4519,-93.4333,0107,15.1000
1981-03-10 23:30:00 UTC,2444674.479167,29.4519,-93.4333,0107,15.1000
1981-03-11 00:00:00 UTC,2444674.500000,29.4519,-93.4333,0107,15.2000
1981-03-11 00:30:00 UTC,2444674.520833,29.4519,-93.4333,0107,15.2000
1981-03-11 01:00:00 UTC,2444674.541667,29.4519,-93.4333,0107,15.2000
1981-03-11 01:30:00 UTC,2444674.562500,29.4519,-93.4333,0107,15.2000
1981-03-11 02:00:00 UTC,2444674.583333,29.4519,-93.4333,0107,15.2000
1981-03-11 02:30:00 UTC,2444674.604167,29.4519,-93.4333,0107,15.2000
1981-03-11 03:00:00 UTC,2444674.625000,29.4519,-93.4333,0107,15.2000
1981-03-11 03:30:00 UTC,2444674.645833,29.4519,-93.4333,0107,15.2000
1981-03-11 04:00:00 UTC,2444674.666667,29.4519,-93.4333,0107,15.2000
1981-03-11 04:30:00 UTC,2444674.687500,29.4519,-93.4333,0107,15.2000
1981-03-11 05:00:00 UTC,2444674.708333,29.4519,-93.4333,0107,15.2000
1981-03-11 05:30:00 UTC,2444674.729167,29.4519,-93.4333,0107,15.2000
1981-03-11 06:00:00 UTC,2444674.750000,29.4519,-93.4333,0107,15.2000
1981-03-11 06:30:00 UTC,2444674.770833,29.4519,-93.4333,0107,15.2000
1981-03-11 07:00:00 UTC,2444674.791667,29.4519,-93.4333,0107,15.2000
1981-03-11 07:30:00 UTC,2444674.812500,29.4519,-93.4333,0107,15.2000
1981-03-11 08:00:00 UTC,2444674.833333,29.4519,-93.4333,0107,15.2000
1981-03-11 08:30:00 UTC,2444674.854167,29.4519,-93.4333,0107,15.2000
1981-03-11 09:00:00 UTC,2444674.875000,29.4519,-93.4333,0107,15.2000
1981-03-11 09:30:00 UTC,2444674.895833,29.4519,-93.4333,0107,15.2000
1981-03-11 10:00:00 UTC,2444674.916667,29.4519,-93.4333,0107,15.2000
1981-03-11 10:30:00 UTC,2444674.937500,29.4519,-93.4333,0107,15.2000
1981-03-11 11:00:00 UTC,2444674.958333,29.4519,-93.4333,0107,15.1000
1981-03-11 11:30:00 UTC,2444674.979167,29.4519,-93.4333,0107,15.1000
1981-03-11 12:00:00 UTC,2444675.000000,29.4519,-93.4333,0107,15.1000
1981-03-11 12:30:00 UTC,2444675.020833,29.4519,-93.4333,0107,15.1000
1981-03-11 13:00:00 UTC,2444675.041667,29.4519,-93.4333,0107,15.1000
1981-03-11 13:30:00 UTC,2444675.062500,29.4519,-93.4333,0107,15.1000
1981-03-11 14:00:00 UTC,2444675.083333,29.4519,-93.4333,0107,15.1000
1981-03-11 14:30:00 UTC,2444675.104167,29.4519,-93.4333,0107,15.1000
1981-03-11 15:00:00 UTC,2444675.125000,29.4519,-93.4333,0107,15.2000
1981-03-11 15:30:00 UTC,2444675.145833,29.4519,-93.4333,0107,15.1000
1981-03-11 16:00:00 UTC,2444675.166667,29.4519,-93.4333,0107,15.2000
1981-03-11 16:30:00 UTC,2444675.187500,29.4519,-93.4333,0107,15.2000
1981-03-11 17:00:00 UTC,2444675.208333,29.4519,-93.4333,0107,15.2000
1981-03-11 17:30:00 UTC,2444675.229167,29.4519,-93.4333,0107,15.2000
1981-03-11 18:00:00 UTC,2444675.250000,29.4519,-93.4333,0107,15.2000
1981-03-11 18:30:00 UTC,2444675.270833,29.4519,-93.4333,0107,15.2000
1981-03-11 19:00:00 UTC,2444675.291667,29.4519,-93.4333,0107,15.2000
1981-03-11 19:30:00 UTC,2444675.312500,29.4519,-93.4333,0107,15.2000
1981-03-11 20:00:00 UTC,2444675.333333,29.4519,-93.4333,0107,15.2000
1981-03-11 20:30:00 UTC,2444675.354167,29.4519,-93.4333,0107,15.2000
1981-03-11 21:00:00 UTC,2444675.375000,29.4519,-93.4333,0107,15.2000
1981-03-11 21:30:00 UTC,2444675.395833,29.4519,-93.4333,0107,15.2000
1981-03-11 22:00:00 UTC,2444675.416667,29.4519,-93.4333,0107,15.2000
1981-03-11 22:30:00 UTC,2444675.437500,29.4519,-93.4333,0107,15.2000
1981-03-11 23:00:00 UTC,2444675.458333,29.4519,-93.4333,0107,15.2000
1981-03-11 23:30:00 UTC,2444675.479167,29.4519,-93.4333,0107,15.2000
1981-03-12 00:00:00 UTC,2444675.500000,29.4519,-93.4333,0107,15.2000
1981-03-12 00:30:00 UTC,2444675.520833,29.4519,-93.4333,0107,15.2000
1981-03-12 01:00:00 UTC,2444675.541667,29.4519,-93.4333,0107,15.2000
1981-03-12 01:30:00 UTC,2444675.562500,29.4519,-93.4333,0107,15.2000
1981-03-12 02:00:00 UTC,2444675.583333,29.4519,-93.4333,0107,15.2000
1981-03-12 02:30:00 UTC,2444675.604167,29.4519,-93.4333,0107,15.2000
1981-03-12 03:00:00 UTC,2444675.625000,29.4519,-93.4333,0107,15.2000
1981-03-12 03:30:00 UTC,2444675.645833,29.4519,-93.4333,0107,15.2000
1981-03-12 04:00:00 UTC,2444675.666667,29.4519,-93.4333,0107,15.2000
1981-03-12 04:30:00 UTC,2444675.687500,29.4519,-93.4333,0107,15.2000
1981-03-12 05:00:00 UTC,2444675.708333,29.4519,-93.4333,0107,15.2000
1981-03-12 05:30:00 UTC,2444675.729167,29.4519,-93.4333,0107,15.2000
1981-03-12 06:00:00 UTC,2444675.750000,29.4519,-93.4333,0107,15.2000
1981-03-12 06:30:00 UTC,2444675.770833,29.4519,-93.4333,0107,15.2000
1981-03-12 07:00:00 UTC,2444675.791667,29.4519,-93.4333,0107,15.2000
1981-03-12 07:30:00 UTC,2444675.812500,29.4519,-93.4333,0107,15.2000
1981-03-12 08:00:00 UTC,2444675.833333,29.4519,-93.4333,0107,15.2000
1981-03-12 08:30:00 UTC,2444675.854167,29.4519,-93.4333,0107,15.2000
1981-03-12 09:00:00 UTC,2444675.875000,29.4519,-93.4333,0107,15.2000
1981-03-12 09:30:00 UTC,2444675.895833,29.4519,-93.4333,0107,15.2000
1981-03-12 10:00:00 UTC,2444675.916667,29.4519,-93.4333,0107,15.2000
1981-03-12 10:30:00 UTC,2444675.937500,29.4519,-93.4333,0107,15.2000
1981-03-12 11:00:00 UTC,2444675.958333,29.4519,-93.4333,0107,15.2000
1981-03-12 11:30:00 UTC,2444675.979167,29.4519,-93.4333,0107,15.2000
1981-03-12 12:00:00 UTC,2444676.000000,29.4519,-93.4333,0107,15.2000
1981-03-12 12:30:00 UTC,2444676.020833,29.4519,-93.4333,0107,15.2000
1981-03-12 13:00:00 UTC,2444676.041667,29.4519,-93.4333,0107,15.2000
1981-03-12 13:30:00 UTC,2444676.062500,29.4519,-93.4333,0107,15.2000
1981-03-12 14:00:00 UTC,2444676.083333,29.4519,-93.4333,0107,15.2000
1981-03-12 14:30:00 UTC,2444676.104167,29.4519,-93.4333,0107,15.2000
1981-03-12 15:00:00 UTC,2444676.125000,29.4519,-93.4333,0107,15.2000
1981-03-12 15:30:00 UTC,2444676.145833,29.4519,-93.4333,0107,15.2000
1981-03-12 16:00:00 UTC,2444676.166667,29.4519,-93.4333,0107,15.2000
1981-03-12 16:30:00 UTC,2444676.187500,29.4519,-93.4333,0107,15.2000
1981-03-12 17:00:00 UTC,2444676.208333,29.4519,-93.4333,0107,15.2000
1981-03-12 17:30:00 UTC,2444676.229167,29.4519,-93.4333,0107,15.2000
1981-03-12 18:00:00 UTC,2444676.250000,29.4519,-93.4333,0107,15.2000
1981-03-12 18:30:00 UTC,2444676.270833,29.4519,-93.4333,0107,15.2000
1981-03-12 19:00:00 UTC,2444676.291667,29.4519,-93.4333,0107,15.3000
1981-03-12 19:30:00 UTC,2444676.312500,29.4519,-93.4333,0107,15.3000
1981-03-12 20:00:00 UTC,2444676.333333,29.4519,-93.4333,0107,15.3000
1981-03-12 20:30:00 UTC,2444676.354167,29.4519,-93.4333,0107,15.4000
1981-03-12 21:00:00 UTC,2444676.375000,29.4519,-93.4333,0107,15.4000
1981-03-12 21:30:00 UTC,2444676.395833,29.4519,-93.4333,0107,15.4000
1981-03-12 22:00:00 UTC,2444676.416667,29.4519,-93.4333,0107,15.4000
1981-03-12 22:30:00 UTC,2444676.437500,29.4519,-93.4333,0107,15.4000
1981-03-12 23:00:00 UTC,2444676.458333,29.4519,-93.4333,0107,15.4000
1981-03-12 23:30:00 UTC,2444676.479167,29.4519,-93.4333,0107,15.4000
1981-03-13 00:00:00 UTC,2444676.500000,29.4519,-93.4333,0107,15.4000
1981-03-13 00:30:00 UTC,2444676.520833,29.4519,-93.4333,0107,15.5000
1981-03-13 01:00:00 UTC,2444676.541667,29.4519,-93.4333,0107,15.5000
1981-03-13 01:30:00 UTC,2444676.562500,29.4519,-93.4333,0107,15.5000
1981-03-13 02:00:00 UTC,2444676.583333,29.4519,-93.4333,0107,15.5000
1981-03-13 02:30:00 UTC,2444676.604167,29.4519,-93.4333,0107,15.5000
1981-03-13 03:00:00 UTC,2444676.625000,29.4519,-93.4333,0107,15.5000
1981-03-13 03:30:00 UTC,2444676.645833,29.4519,-93.4333,0107,15.5000
1981-03-13 04:00:00 UTC,2444676.666667,29.4519,-93.4333,0107,15.5000
1981-03-13 04:30:00 UTC,2444676.687500,29.4519,-93.4333,0107,15.5000
1981-03-13 05:00:00 UTC,2444676.708333,29.4519,-93.4333,0107,15.5000
1981-03-13 05:30:00 UTC,2444676.729167,29.4519,-93.4333,0107,15.5000
1981-03-13 06:00:00 UTC,2444676.750000,29.4519,-93.4333,0107,15.5000
1981-03-13 06:30:00 UTC,2444676.770833,29.4519,-93.4333,0107,15.5000
1981-03-13 07:00:00 UTC,2444676.791667,29.4519,-93.4333,0107,15.5000
1981-03-13 07:30:00 UTC,2444676.812500,29.4519,-93.4333,0107,15.5000
1981-03-13 08:00:00 UTC,2444676.833333,29.4519,-93.4333,0107,15.5000
1981-03-13 08:30:00 UTC,2444676.854167,29.4519,-93.4333,0107,15.4000
1981-03-13 09:00:00 UTC,2444676.875000,29.4519,-93.4333,0107,15.4000
1981-03-13 09:30:00 UTC,2444676.895833,29.4519,-93.4333,0107,15.4000
1981-03-13 10:00:00 UTC,2444676.916667,29.4519,-93.4333,0107,15.4000
1981-03-13 10:30:00 UTC,2444676.937500,29.4519,-93.4333,0107,15.4000
1981-03-13 11:00:00 UTC,2444676.958333,29.4519,-93.4333,0107,15.4000
1981-03-13 11:30:00 UTC,2444676.979167,29.4519,-93.4333,0107,15.4000
1981-03-13 12:00:00 UTC,2444677.000000,29.4519,-93.4333,0107,15.3000
1981-03-13 12:30:00 UTC,2444677.020833,29.4519,-93.4333,0107,15.3000
1981-03-13 13:00:00 UTC,2444677.041667,29.4519,-93.4333,0107,15.3000
1981-03-13 13:30:00 UTC,2444677.062500,29.4519,-93.4333,0107,15.3000
1981-03-13 14:00:00 UTC,2444677.083333,29.4519,-93.4333,0107,15.3000
1981-03-13 14:30:00 UTC,2444677.104167,29.4519,-93.4333,0107,15.3000
1981-03-13 15:00:00 UTC,2444677.125000,29.4519,-93.4333,0107,15.3000
1981-03-13 15:30:00 UTC,2444677.145833,29.4519,-93.4333,0107,15.3000
1981-03-13 16:00:00 UTC,2444677.166667,29.4519,-93.4333,0107,15.3000
1981-03-13 16:30:00 UTC,2444677.187500,29.4519,-93.4333,0107,15.3000
1981-03-13 17:00:00 UTC,2444677.208333,29.4519,-93.4333,0107,15.3000
1981-03-13 17:30:00 UTC,2444677.229167,29.4519,-93.4333,0107,15.3000
1981-03-13 18:00:00 UTC,2444677.250000,29.4519,-93.4333,0107,15.3000
1981-03-13 18:30:00 UTC,2444677.270833,29.4519,-93.4333,0107,15.4000
1981-03-13 19:00:00 UTC,2444677.291667,29.4519,-93.4333,0107,15.4000
1981-03-13 19:30:00 UTC,2444677.312500,29.4519,-93.4333,0107,15.4000
1981-03-13 20:00:00 UTC,2444677.333333,29.4519,-93.4333,0107,15.4000
1981-03-13 20:30:00 UTC,2444677.354167,29.4519,-93.4333,0107,15.4000
1981-03-13 21:00:00 UTC,2444677.375000,29.4519,-93.4333,0107,15.4000